Overview Statistics Trail Chart Weather Telemetry Raw packets
 

This is the latest recevied weather packets stored in our database for station/object WW5JC. If no packets are shown the sender has not sent any weather packets the latest 10 day(s).

<< 61 62 63 64 65 66 67 >>
Time Temp. Humidity Pressure Rain* Wind** Luminosity Snow
1788205256 36.67° C 41% 1017.8 hPa 0 mm - 151 W/m² -
1788204951 37.22° C 39% 1017.9 hPa 0 mm - 614 W/m² -
1788204646 36.67° C 39% 1017.9 hPa 0 mm - 633 W/m² -
1788204341 37.78° C 39% 1018.1 hPa 0 mm - 669 W/m² -
1788204036 36.67° C 39% 1018.2 hPa 0 mm - 643 W/m² -
1788203732 36.67° C 39% 1018 hPa 0 mm - 660 W/m² -
1788203428 36.67° C 42% 1018 hPa 0 mm - 672 W/m² -
1788203123 36.11° C 40% 1018.1 hPa 0 mm - 665 W/m² -
1788202822 36.11° C 41% 1018.2 hPa 0 mm - 687 W/m² -
1788202518 35.56° C 42% 1018.2 hPa 0 mm - 131 W/m² -
1788202223 35° C 42% 1018.2 hPa 0 mm - 706 W/m² -
1788201907 35.56° C 43% 1018.3 hPa 0 mm - 130 W/m² -
1788201603 36.11° C 43% 1018.3 hPa 0 mm - 159 W/m² -
1788201311 36.11° C 44% 1018.6 hPa 0 mm - 702 W/m² -
1788200995 36.11° C 43% 1018.5 hPa 0 mm - 711 W/m² -
1788200690 36.11° C 43% 1018.7 hPa 0 mm - 692 W/m² -
1788200386 35° C 44% 1018.7 hPa 0 mm - 692 W/m² -
1788200081 35° C 45% 1018.7 hPa 0 mm - 139 W/m² -
1788199775 36.11° C 45% 1018.7 hPa 0 mm - 157 W/m² -
1788199469 35.56° C 44% 1018.9 hPa 0 mm - 665 W/m² -
1788199169 35.56° C 45% 1018.9 hPa 0 mm - 661 W/m² -
1788198866 35.56° C 45% 1019 hPa 0 mm - 638 W/m² -
1788198561 35° C 46% 1019.1 hPa 0 mm - 647 W/m² -
1788198256 35.56° C 44% 1019.3 hPa 0 mm - 637 W/m² -
1788197956 35.56° C 45% 1019.4 hPa 0 mm - 634 W/m² -

* Rain latest hour (hover to see other rain measurements)
** Current wind speed in m/s (hover to see current wind gust speed)